一网星座-0708 (ONEWEB-0708)

导读

ONEWEB-0708是英国OneWeb公司的低轨互联网卫星,于2024年10月20日由SpaceX猎鹰9号火箭发射升空,属于该公司完成全球卫星星座组网的最后一批发射任务。该卫星运行在低地球轨道,依托低轨星座实现低延迟、高带宽的全球互联网覆盖,可服务偏远地区接入,支撑企业及政府客户通信需求,提升了OneWeb星座的整体弹性与冗余性。

Basic Information
目录编号:
61613
目录名称:
ONEWEB-0708
国际标识:
2024-188V
轨道中心:
EARTH
卫星名称:
一网星座-0708
卫星全名:
一网星座-0708 (ONEWEB-0708)
卫星状态:
在轨 (已飞行602 天)
发射日期:
2024-10-20 UTC
国别 :
英国 (GB)
星等 :
--
Orbit Information
数据来源 国际轨道数据 AOE轨道数据
星历时间 2026-06-14T12:23:14+0800
10小时前
查看轨道信息
2026-06-08T23:00:00+0800
6天前
查看轨道信息
半长轴 7599.865km 7599.854km
偏心率 0.0002369 0.0002588
轨道倾角 87.883° 87.886°
近地点辐角 84.808° 79.808°
升交点赤经 36.876° 37.982°
平近点角 275.332° 357.277°
近地点 1219.927km 1219.75km
远地点 1223.529km 1223.684km
周期 109.893分钟 109.892分钟
每日圈数 13.103701 13.103731
Detailed Information
卫星平台:
0708
平衡模式:
三轴稳定
覆盖范围:
全球
运营商:
一网卫星公司
运营商所在国:
英国
制造商(研发单位):
空客防务与航天公司
制造商所在国:
法国大都会
使用方式:
暂无
Satellite Introduction
OneWeb 计划是一项全球卫星互联网项目,旨在通过发射低轨道卫星,为全球偏远和无法接入互联网的地区提供高速网络连接。OneWeb 的目标是打造一个由数百颗卫星组成的网络,帮助缩小全球数字鸿沟,推动教育、医疗和经济发展。
2D Orbit Map
3D Orbit Map
Orbit Altitude Analysis Chart
Orbit Inclination Analysis Chart
Orbit Comprehensive Analysis Chart
View Comprehensive Chart